When you browse on this site, cookies collect data to enhance your experience and personalize the content and advertising you see.
Visit our Privacy Policy to learn more. By continuing to use the site, you agree to this use of cookies and data.
  • In Hungary
  • List of Countries
  • For 7 days
  • Water Temperature
  • Satellite Maps
  • Weather Map
  • News
  • Weather Widgets
  • user-avatar
    Login

    Hourly Weather Belluno

    Today, 19 December, Wednesday

    Time Temperature Precipitation Wind Pressure Humidity
    00:00 +2°C° 0 mm 1 mps 733 mmHg 64%
    01:00 +2°C° 0 mm 1 mps 733 mmHg 63%
    02:00 +2°C° 0 mm 1 mps 733 mmHg 62%
    03:00 +2°C° 0 mm 1 mps 732 mmHg 61%
    04:00 +2°C° 0 mm 1 mps 732 mmHg 60%
    05:00 +2°C° 0 mm 1 mps 732 mmHg 60%
    06:00 +2°C° 0 mm 1 mps 732 mmHg 59%
    07:00 +2°C° 0 mm 1 mps 732 mmHg 59%
    08:00 +3°C° 0 mm 1 mps 732 mmHg 57%
    09:00 +4°C° 0 mm 1 mps 732 mmHg 54%
    10:00 +4°C° 0 mm 0 mps 732 mmHg 52%
    11:00 +6°C° 0 mm 1 mps 731 mmHg 52%
    12:00 +6°C° 0 mm 1 mps 731 mmHg 52%
    13:00 +7°C° 0 mm 1 mps 731 mmHg 52%
    14:00 +6°C° 0 mm 1 mps 730 mmHg 57%
    15:00 +4°C° 0 mm 0 mps 730 mmHg 62%
    16:00 +4°C° 0 mm 0 mps 730 mmHg 68%
    17:00 +4°C° 0 mm 1 mps 730 mmHg 69%
    18:00 +3°C° 0 mm 1 mps 730 mmHg 71%
    19:00 +3°C° 0 mm 1 mps 730 mmHg 72%
    20:00 +3°C° 0.1 mm 1 mps 730 mmHg 72%
    21:00 +3°C° 0.1 mm 1 mps 730 mmHg 72%
    22:00 +4°C° 0.1 mm 1 mps 729 mmHg 72%
    23:00 +3°C° 1.1 mm 2 mps 729 mmHg 77%

    Tomorrow, 20 December, Thursday

    Time Temperature Precipitation Wind Pressure Humidity
    00:00 +3°C° 1.1 mm 2 mps 729 mmHg 82%
    01:00 +3°C° 1.1 mm 2 mps 729 mmHg 87%
    02:00 +3°C° 1 mm 2 mps 729 mmHg 88%
    03:00 +3°C° 1 mm 2 mps 729 mmHg 89%
    04:00 +3°C° 1 mm 2 mps 729 mmHg 90%
    05:00 +3°C° 0.5 mm 2 mps 729 mmHg 90%
    06:00 +3°C° 0.5 mm 2 mps 729 mmHg 89%
    07:00 +3°C° 0.5 mm 2 mps 729 mmHg 89%
    08:00 +4°C° 0.1 mm 2 mps 729 mmHg 86%
    09:00 +6°C° 0.1 mm 1 mps 730 mmHg 84%
    10:00 +6°C° 0.1 mm 1 mps 730 mmHg 81%
    11:00 +7°C° 0 mm 1 mps 730 mmHg 79%
    12:00 +8°C° 0 mm 1 mps 730 mmHg 76%
    13:00 +9°C° 0 mm 1 mps 730 mmHg 74%
    14:00 +8°C° 0.1 mm 1 mps 730 mmHg 78%
    15:00 +7°C° 0.1 mm 1 mps 730 mmHg 83%
    16:00 +5°C° 0.1 mm 0 mps 730 mmHg 88%
    17:00 +6°C° 0.1 mm 1 mps 731 mmHg 88%
    18:00 +5°C° 0.1 mm 1 mps 731 mmHg 88%
    19:00 +5°C° 0.1 mm 1 mps 732 mmHg 88%
    20:00 +4°C° 0 mm 1 mps 732 mmHg 88%
    21:00 +4°C° 0 mm 1 mps 733 mmHg 87%
    22:00 +4°C° 0 mm 1 mps 733 mmHg 87%
    23:00 +4°C° 0 mm 1 mps 733 mmHg 86%

    Day after tomorrow, 21 December, Friday

    Time Temperature Precipitation Wind Pressure Humidity
    00:00 +3°C° 0 mm 1 mps 734 mmHg 86%
    01:00 +3°C° 0 mm 1 mps 734 mmHg 86%
    02:00 +3°C° 0 mm 1 mps 734 mmHg 86%
    03:00 +3°C° 0 mm 1 mps 734 mmHg 85%
    04:00 +3°C° 0 mm 1 mps 734 mmHg 85%
    05:00 +3°C° 0 mm 1 mps 734 mmHg 84%
    06:00 +3°C° 0 mm 1 mps 734 mmHg 83%
    07:00 +3°C° 0 mm 1 mps 734 mmHg 83%
    08:00 +4°C° 0 mm 1 mps 734 mmHg 81%
    09:00 +4°C° 0 mm 1 mps 734 mmHg 80%
    10:00 +4°C° 0 mm 0 mps 733 mmHg 79%
    11:00 +6°C° 0 mm 1 mps 733 mmHg 79%
    12:00 +7°C° 0 mm 1 mps 732 mmHg 80%
    13:00 +7°C° 0 mm 1 mps 732 mmHg 80%
    14:00 +7°C° 0 mm 1 mps 732 mmHg 83%
    15:00 +6°C° 0 mm 1 mps 731 mmHg 87%
    16:00 +5°C° 0 mm 1 mps 731 mmHg 90%
    17:00 +5°C° 0 mm 1 mps 731 mmHg 89%
    18:00 +5°C° 0 mm 1 mps 731 mmHg 88%
    19:00 +4°C° 0 mm 1 mps 731 mmHg 87%
    20:00 +4°C° 0 mm 1 mps 731 mmHg 86%
    21:00 +4°C° 0 mm 1 mps 731 mmHg 85%
    22:00 +4°C° 0 mm 1 mps 731 mmHg 83%
    23:00 +4°C° 0 mm 1 mps 731 mmHg 82%

    22 December, Saturday

    Time Temperature Precipitation Wind Pressure Humidity
    00:00 +4°C° 0 mm 1 mps 731 mmHg 81%
    01:00 +4°C° 0 mm 1 mps 731 mmHg 80%
    02:00 +4°C° 0 mm 1 mps 730 mmHg 79%
    03:00 +4°C° 0 mm 1 mps 730 mmHg 79%
    04:00 +4°C° 0 mm 1 mps 730 mmHg 79%
    05:00 +4°C° 0 mm 1 mps 730 mmHg 79%
    06:00 +4°C° 0 mm 1 mps 730 mmHg 79%
    07:00 +4°C° 0 mm 1 mps 730 mmHg 80%
    08:00 +5°C° 0 mm 1 mps 730 mmHg 78%
    09:00 +6°C° 0 mm 1 mps 730 mmHg 77%
    10:00 +7°C° 0 mm 1 mps 730 mmHg 75%
    11:00 +8°C° 0 mm 1 mps 730 mmHg 76%
    12:00 +9°C° 0 mm 1 mps 730 mmHg 76%
    13:00 +9°C° 0 mm 1 mps 729 mmHg 77%
    14:00 +9°C° 0 mm 1 mps 729 mmHg 80%
    15:00 +8°C° 0 mm 1 mps 729 mmHg 84%
    16:00 +6°C° 0 mm 0 mps 729 mmHg 87%
    17:00 +6°C° 0 mm 1 mps 729 mmHg 87%
    18:00 +6°C° 0 mm 1 mps 730 mmHg 87%
    19:00 +5°C° 0 mm 1 mps 730 mmHg 87%
    20:00 +5°C° 0 mm 1 mps 730 mmHg 86%
    21:00 +5°C° 0 mm 1 mps 730 mmHg 86%
    22:00 +5°C° 0 mm 1 mps 730 mmHg 85%
    23:00 +5°C° 0 mm 1 mps 730 mmHg 84%

    23 December, Sunday

    Time Temperature Precipitation Wind Pressure Humidity
    00:00 +5°C° 0 mm 1 mps 730 mmHg 84%
    01:00 +5°C° 0 mm 1 mps 731 mmHg 83%
    02:00 +5°C° 0 mm 1 mps 731 mmHg 83%
    03:00 +5°C° 0 mm 1 mps 731 mmHg 82%
    04:00 +5°C° 0 mm 1 mps 731 mmHg 82%
    05:00 +5°C° 0 mm 1 mps 731 mmHg 81%
    06:00 +5°C° 0 mm 1 mps 731 mmHg 81%
    07:00 +5°C° 0 mm 1 mps 732 mmHg 81%
    08:00 +6°C° 0 mm 1 mps 732 mmHg 79%
    09:00 +7°C° 0 mm 1 mps 732 mmHg 77%
    10:00 +8°C° 0 mm 1 mps 732 mmHg 75%
    11:00 +9°C° 0 mm 1 mps 732 mmHg 75%
    12:00 +10°C° 0 mm 1 mps 732 mmHg 75%
    13:00 +11°C° 0 mm 1 mps 732 mmHg 75%
    14:00 +10°C° 0 mm 1 mps 732 mmHg 79%
    15:00 +8°C° 0 mm 0 mps 731 mmHg 82%
    16:00 +7°C° 0 mm 0 mps 731 mmHg 85%
    17:00 +8°C° 0 mm 1 mps 731 mmHg 84%
    18:00 +7°C° 0 mm 1 mps 732 mmHg 84%
    19:00 +7°C° 0 mm 1 mps 732 mmHg 83%
    20:00 +7°C° 0 mm 1 mps 732 mmHg 83%
    21:00 +6°C° 0 mm 1 mps 732 mmHg 82%
    22:00 +6°C° 0 mm 1 mps 732 mmHg 82%
    23:00 +6°C° 0 mm 1 mps 732 mmHg 82%

    24 December, Monday

    Time Temperature Precipitation Wind Pressure Humidity
    00:00 +6°C° 0 mm 1 mps 732 mmHg 82%
    01:00 +6°C° 0 mm 1 mps 732 mmHg 82%
    02:00 +6°C° 0 mm 1 mps 731 mmHg 82%
    03:00 +6°C° 0 mm 1 mps 731 mmHg 82%
    04:00 +6°C° 0 mm 1 mps 731 mmHg 83%
    05:00 +6°C° 0 mm 1 mps 731 mmHg 83%
    06:00 +6°C° 0 mm 1 mps 730 mmHg 83%
    07:00 +6°C° 0 mm 1 mps 730 mmHg 83%
    08:00 +7°C° 0 mm 1 mps 730 mmHg 81%
    09:00 +8°C° 0 mm 1 mps 731 mmHg 79%
    10:00 +9°C° 0 mm 1 mps 731 mmHg 78%
    11:00 +10°C° 0 mm 1 mps 730 mmHg 78%
    12:00 +11°C° 0 mm 1 mps 730 mmHg 79%
    13:00 +11°C° 0 mm 1 mps 730 mmHg 79%
    14:00 +10°C° 0 mm 1 mps 730 mmHg 83%
    15:00 +8°C° 0 mm 0 mps 729 mmHg 87%
    16:00 +8°C° 0 mm 0 mps 729 mmHg 90%
    17:00 +8°C° 0 mm 1 mps 729 mmHg 90%
    18:00 +8°C° 0 mm 1 mps 729 mmHg 90%
    19:00 +8°C° 0 mm 1 mps 730 mmHg 90%
    20:00 +8°C° 0 mm 1 mps 730 mmHg 89%
    21:00 +7°C° 0 mm 1 mps 730 mmHg 89%
    22:00 +7°C° 0 mm 1 mps 730 mmHg 89%
    23:00 +7°C° 0 mm 1 mps 729 mmHg 89%
    Show more